Simultaneous Nadir Overpasses (SNOs) Predictions

Prediction of SNOs between GOES-17 and NOAA-19 Satellite Orbit:

Table of predicted SNOs for the next 14.0 days since TLE Epoch: 10/26/2024
Index Date Time (GOES-17) GOES-17 Lat,Lon NOAA-19 Lat,Lon Distance(km) Time Diff (sec)
1 10/26/2024 16:23:15 -0.01,-104.73 -0.35,-103.29 164.52 80
2 10/29/2024 04:42:20 0.01,-104.68 -0.73,-107.83 360.03 80
3 10/30/2024 04:29:54 0.01,-104.68 -0.01,-104.81 14.93 80
4 10/31/2024 04:14:48 0.01,-104.69 0.66,-101.79 330.23 80
5 11/02/2024 16:33:56 -0.02,-104.75 0.32,-106.36 182.65 80
6 11/03/2024 16:24:09 -0.01,-104.75 -0.36,-103.33 162.81 80
7 11/06/2024 04:43:13 -0.01,-104.70 -0.71,-107.87 361.14 80
8 11/07/2024 04:30:46 -0.02,-104.70 -0.08,-104.83 16.46 80
9 11/08/2024 04:15:39 -0.03,-104.69 0.61,-101.81 328.85 80
